TimeEST,TemperatureF,Dew PointF,Humidity,Sea Level PressureIn,VisibilityMPH,Wind Direction,Wind SpeedMPH,Gust SpeedMPH,PrecipitationIn,Events,Conditions,WindDirDegrees,DateUTC
12:15 AM,26.6,21.2,80,29.96,3.0,Calm,Calm,-,N/A,,Overcast,0,2013-02-05 05:15:00
12:35 AM,26.6,21.2,80,29.96,4.0,South,3.5,-,N/A,,Overcast,190,2013-02-05 05:35:00
12:55 AM,26.6,23.0,86,29.95,3.0,South,3.5,-,N/A,,Overcast,170,2013-02-05 05:55:00
1:15 AM,26.6,24.8,93,29.95,5.0,SSE,3.5,-,N/A,,Overcast,150,2013-02-05 06:15:00
1:35 AM,26.6,24.8,93,29.94,8.0,SSE,3.5,-,N/A,,Overcast,150,2013-02-05 06:35:00
1:55 AM,26.6,24.8,93,29.94,8.0,South,3.5,-,N/A,,Overcast,170,2013-02-05 06:55:00
2:15 AM,26.6,24.8,93,29.93,8.0,SSE,3.5,-,N/A,,Overcast,150,2013-02-05 07:15:00
2:35 AM,26.6,24.8,93,29.93,9.0,Calm,Calm,-,N/A,,Overcast,0,2013-02-05 07:35:00
2:55 AM,26.6,24.8,93,29.92,10.0,Calm,Calm,-,N/A,,Overcast,0,2013-02-05 07:55:00
3:15 AM,26.6,24.8,93,29.92,10.0,Calm,Calm,-,N/A,,Overcast,0,2013-02-05 08:15:00
3:35 AM,28.4,24.8,86,29.92,10.0,Calm,Calm,-,N/A,,Overcast,0,2013-02-05 08:35:00
3:55 AM,28.4,24.8,86,29.91,9.0,Calm,Calm,-,N/A,,Overcast,0,2013-02-05 08:55:00
4:15 AM,28.4,24.8,86,29.90,8.0,Calm,Calm,-,N/A,,Overcast,0,2013-02-05 09:15:00
4:35 AM,28.4,24.8,86,29.89,9.0,Calm,Calm,-,N/A,,Overcast,0,2013-02-05 09:35:00
4:55 AM,28.4,26.6,93,29.90,9.0,Calm,Calm,-,N/A,,Overcast,0,2013-02-05 09:55:00
5:15 AM,28.4,26.6,93,29.90,8.0,ENE,4.6,-,N/A,,Overcast,70,2013-02-05 10:15:00
5:35 AM,28.4,26.6,93,29.91,9.0,NNW,3.5,-,N/A,,Overcast,340,2013-02-05 10:35:00
5:55 AM,28.4,26.6,93,29.91,8.0,NNW,3.5,-,N/A,,Overcast,340,2013-02-05 10:55:00
6:15 AM,28.4,26.6,93,29.91,8.0,NNW,3.5,-,N/A,,Overcast,340,2013-02-05 11:15:00
6:35 AM,28.4,26.6,93,29.91,8.0,Calm,Calm,-,N/A,,Overcast,0,2013-02-05 11:35:00
6:55 AM,28.4,26.6,93,29.91,8.0,North,4.6,-,N/A,,Overcast,10,2013-02-05 11:55:00
7:15 AM,28.4,26.6,93,29.91,6.0,North,4.6,-,N/A,,Overcast,10,2013-02-05 12:15:00
7:35 AM,28.4,26.6,93,29.92,5.0,North,5.8,-,N/A,,Overcast,10,2013-02-05 12:35:00
7:55 AM,28.4,26.6,93,29.93,5.0,North,6.9,-,N/A,,Overcast,360,2013-02-05 12:55:00
8:15 AM,30.2,26.6,86,29.94,7.0,North,6.9,-,N/A,,Overcast,10,2013-02-05 13:15:00
8:35 AM,30.2,26.6,86,29.94,7.0,North,5.8,-,N/A,,Overcast,360,2013-02-05 13:35:00
8:55 AM,30.2,26.6,86,29.94,7.0,North,4.6,-,N/A,,Overcast,360,2013-02-05 13:55:00
9:15 AM,30.2,26.6,86,29.94,8.0,North,6.9,-,N/A,,Overcast,360,2013-02-05 14:15:00
9:55 AM,30.2,28.4,93,29.94,8.0,NNE,8.1,-,N/A,,Unknown,30,2013-02-05 14:55:00
10:15 AM,32.0,28.4,87,29.95,7.0,NNE,5.8,-,N/A,,Overcast,30,2013-02-05 15:15:00
10:35 AM,32.0,19.4,60,29.95,5.0,NNE,5.8,-,N/A,,Overcast,20,2013-02-05 15:35:00
10:55 AM,32.0,19.4,60,29.96,5.0,NNE,5.8,-,N/A,,Overcast,20,2013-02-05 15:55:00
11:15 AM,32.0,19.4,60,29.95,3.0,North,5.8,-,N/A,,Overcast,10,2013-02-05 16:15:00
11:35 AM,32.0,17.6,55,29.94,3.0,NNE,6.9,-,N/A,,Overcast,20,2013-02-05 16:35:00
11:55 AM,32.0,17.6,55,29.94,3.0,North,6.9,-,N/A,,Overcast,10,2013-02-05 16:55:00
12:15 PM,32.0,17.6,55,29.94,4.0,NE,6.9,-,N/A,,Overcast,40,2013-02-05 17:15:00
12:35 PM,32.0,17.6,55,29.94,5.0,NNE,5.8,-,N/A,,Overcast,20,2013-02-05 17:35:00
12:55 PM,32.0,17.6,55,29.94,5.0,NNE,4.6,-,N/A,,Overcast,20,2013-02-05 17:55:00
1:15 PM,32.0,17.6,55,29.92,5.0,ENE,9.2,-,N/A,,Overcast,60,2013-02-05 18:15:00
1:35 PM,32.0,17.6,55,29.91,8.0,NE,9.2,-,N/A,,Overcast,50,2013-02-05 18:35:00
1:55 PM,33.8,17.6,52,29.90,8.0,NE,5.8,-,N/A,,Overcast,40,2013-02-05 18:55:00
2:15 PM,33.8,28.4,81,29.90,8.0,NE,6.9,-,N/A,,Overcast,50,2013-02-05 19:15:00
2:35 PM,33.8,28.4,81,29.90,8.0,NE,6.9,-,N/A,,Overcast,50,2013-02-05 19:35:00
2:55 PM,33.8,28.4,81,29.90,8.0,NE,6.9,-,N/A,,Overcast,50,2013-02-05 19:55:00
3:15 PM,33.8,30.2,87,29.90,7.0,NE,6.9,-,N/A,,Overcast,50,2013-02-05 20:15:00
3:35 PM,33.8,30.2,87,29.90,7.0,NNE,4.6,-,N/A,,Overcast,30,2013-02-05 20:35:00
3:55 PM,33.8,30.2,87,29.90,7.0,NE,4.6,-,N/A,,Overcast,40,2013-02-05 20:55:00
4:15 PM,33.8,30.2,87,29.90,8.0,NE,5.8,-,N/A,,Overcast,50,2013-02-05 21:15:00
4:35 PM,33.8,30.2,87,29.90,8.0,NE,5.8,-,N/A,,Overcast,50,2013-02-05 21:35:00
4:55 PM,33.8,30.2,87,29.89,6.0,NNE,5.8,-,N/A,,Overcast,30,2013-02-05 21:55:00
5:15 PM,33.8,30.2,87,29.89,7.0,NE,5.8,-,N/A,,Overcast,40,2013-02-05 22:15:00
5:35 PM,33.8,30.2,87,29.88,8.0,NE,6.9,-,N/A,,Overcast,40,2013-02-05 22:35:00
5:55 PM,33.8,30.2,87,29.89,7.0,NE,4.6,-,N/A,,Overcast,50,2013-02-05 22:55:00
6:15 PM,33.8,30.2,87,29.89,7.0,NE,3.5,-,N/A,,Overcast,40,2013-02-05 23:15:00
6:35 PM,33.8,30.2,87,29.89,8.0,NNE,3.5,-,N/A,,Overcast,30,2013-02-05 23:35:00
6:55 PM,33.8,30.2,87,29.90,4.0,NNE,3.5,-,N/A,,Overcast,30,2013-02-05 23:55:00
7:15 PM,33.8,30.2,87,29.90,5.0,Calm,Calm,-,N/A,,Overcast,0,2013-02-06 00:15:00
7:35 PM,33.8,30.2,87,29.90,4.0,NNE,3.5,-,N/A,,Overcast,20,2013-02-06 00:35:00
7:55 PM,33.8,30.2,87,29.89,4.0,Calm,Calm,-,N/A,,Overcast,0,2013-02-06 00:55:00
8:15 PM,33.8,30.2,87,29.90,4.0,Calm,Calm,-,N/A,,Overcast,0,2013-02-06 01:15:00
8:35 PM,33.8,32.0,93,29.90,4.0,Calm,Calm,-,N/A,,Overcast,0,2013-02-06 01:35:00
8:55 PM,33.8,30.2,87,29.90,3.0,NNE,3.5,-,N/A,,Overcast,20,2013-02-06 01:55:00
9:15 PM,33.8,30.2,87,29.90,3.0,Calm,Calm,-,N/A,,Overcast,0,2013-02-06 02:15:00
9:35 PM,33.8,32.0,93,29.91,3.0,Calm,Calm,-,N/A,,Overcast,0,2013-02-06 02:35:00
9:55 PM,32.0,30.2,93,29.91,4.0,NNE,3.5,-,N/A,,Overcast,20,2013-02-06 02:55:00
10:15 PM,32.0,32.0,100,29.91,3.0,Calm,Calm,-,N/A,,Overcast,0,2013-02-06 03:15:00
10:35 PM,32.0,30.2,93,29.90,3.0,NNE,3.5,-,N/A,,Overcast,30,2013-02-06 03:35:00
10:55 PM,33.8,30.2,87,29.91,3.0,NNW,5.8,-,N/A,,Overcast,340,2013-02-06 03:55:00
11:15 PM,32.0,30.2,93,29.91,4.0,Calm,Calm,-,N/A,,Overcast,0,2013-02-06 04:15:00
11:35 PM,32.0,30.2,93,29.91,3.0,North,3.5,-,N/A,,Overcast,360,2013-02-06 04:35:00
11:55 PM,32.0,30.2,93,29.91,3.0,North,3.5,-,N/A,,Overcast,350,2013-02-06 04:55:00